This demonstration page uses our WeatherBlox Daily Observations layout. Learn more.

Left ArrowRight Arrow

34.16533, -84.80231

Hourly Observations for June 10, 2019

Temp ( °F °C ) Dew Point ( °F °C ) Humidity (%) Winds ( mph kmh ) Pressure ( in mb ) Visibility ( mi km ) Precip ( " mm )
12:53 am 00:53 Clear 71 21.7 70 21.1 96 96 Calm 29.90 1012 10 16 0.00 0.00
1:53 am 01:53 Cloudy 72 22.2 71 21.7 97 97 Calm 29.89 1012 10 16 0.00 0.00
2:28 am 02:28 Cloudy 73 22.8 71 21.7 94 94 Calm 29.90 1012 10 16 0.00 0.00
2:53 am 02:53 Cloudy 72 22.2 71 21.7 97 97 Calm 29.89 1012 10 16 0.00 0.00
3:14 am 03:14 Cloudy 73 22.8 71 21.7 94 94 Calm 29.91 1013 10 16 0.00 0.00
3:53 am 03:53 Cloudy 72 22.2 71 21.7 97 97 Calm 29.89 1012 10 16 0.00 0.00
4:37 am 04:37 Cloudy 72 22.2 71 21.7 97 97 Calm 29.91 1013 10 16 0.00 0.00
4:53 am 04:53 Mostly Cloudy 72 22.2 71 21.7 97 97 Calm 29.89 1012 10 16 0.00 0.00
5:53 am 05:53 Cloudy 71 21.7 70 21.1 96 96 Calm 29.91 1013 10 16 0.00 0.00
6:16 am 06:16 Cloudy 71 21.7 70 21.1 96 96 Calm 29.93 1013 10 16 0.00 0.00
6:37 am 06:37 Cloudy 72 22.2 71 21.7 97 97 Calm 29.94 1014 10 16 0.00 0.00
6:53 am 06:53 Cloudy with Light Rain 72 22.2 71 21.7 97 97 Calm 29.93 1013 7 11 0.00 0.03
7:10 am 07:10 Cloudy with Light Rain 72 22.2 71 21.7 97 97 Calm 29.95 1014 3 4 0.02 0.51
7:27 am 07:27 Cloudy with Light Rain 72 22.2 71 21.7 97 97 Calm 29.95 1014 5 8 0.05 1.27
7:38 am 07:38 Cloudy with Rain 72 22.2 71 21.7 97 97 SSE 3 6 29.95 1014 3 4 0.07 1.78
7:46 am 07:46 Cloudy with Light Rain 72 22.2 71 21.7 97 97 Calm 29.95 1014 5 8 0.07 1.78
7:53 am 07:53 Cloudy 72 22.2 71 21.7 97 97 Calm 29.93 1014 9 14 0.07 1.78
8:00 am 08:00 Cloudy 72 22.2 71 21.7 97 97 Calm 29.95 1014 10 16 0.00 0.00
8:07 am 08:07 Cloudy 72 22.2 71 21.7 97 97 Calm 29.95 1014 10 16 0.00 0.00
8:53 am 08:53 Cloudy 73 22.8 71 21.7 94 94 Calm 29.94 1014 10 16 0.00 0.00
9:08 am 09:08 Cloudy 73 22.8 72 22.2 96 96 Calm 29.97 1015 8 13 0.00 0.00
9:36 am 09:36 Cloudy 74 23.3 72 22.2 94 94 Calm 29.97 1015 10 16 0.00 0.00
9:53 am 09:53 Cloudy 74 23.3 72 22.2 94 94 Calm 29.96 1015 8 13 0.00 0.00
10:03 am 10:03 Cloudy with Light Rain 74 23.3 72 22.2 94 94 Calm 29.97 1015 4 6 0.00 0.03
10:10 am 10:10 Cloudy with Light Rain 74 23.3 72 22.2 94 94 Calm 29.97 1015 5 8 0.00 0.03
10:19 am 10:19 Cloudy with Light Rain 74 23.3 72 22.2 94 94 Calm 29.97 1015 6 10 0.01 0.25
10:24 am 10:24 Cloudy with Light Rain 74 23.3 72 22.2 94 94 Calm 29.97 1015 6 10 0.01 0.25
10:53 am 10:53 Mostly Cloudy 75 23.9 73 22.8 94 94 Calm 29.96 1015 8 13 0.01 0.25
11:14 am 11:14 Mostly Cloudy 77 25 72 22.2 85 85 N 5 7 29.97 1015 10 16 0.00 0.00
11:36 am 11:36 Mostly Cloudy 79 26.1 73 22.8 82 82 NNE 6 9 29.98 1015 10 16 0.00 0.00
11:53 am 11:53 Mostly Cloudy 79 26.1 72 22.2 79 79 VRB 6 9 29.97 1015 10 16 0.00 0.00
12:09 pm 12:09 Mostly Cloudy 80 26.7 72 22.2 76 76 NNE 10 17 29.97 1015 10 16 0.00 0.00
12:21 pm 12:21 Mostly Cloudy 79 26.1 71 21.7 77 77 NNE 10 17 29.97 1015 10 16 0.00 0.00
12:53 pm 12:53 Mostly Cloudy 80 26.7 71 21.7 74 74 NE 7 11 29.96 1015 10 16 0.00 0.00
1:43 pm 13:43 Mostly Cloudy 82 27.8 70 21.1 67 67 N 12 19 29.95 1014 10 16 0.00 0.00
1:47 pm 13:47 Mostly Cloudy with Thunderstorms 81 27 70 21 70 70 N 9 15 29.95 1014 10 16 0.00 0.00
1:53 pm 13:53 Cloudy with Thunderstorms 79 26.1 70 21.1 74 74 VRB 6 9 29.96 1015 10 16 0.00 0.00
2:03 pm 14:03 Cloudy with Thunderstorms 74 23.3 69 20.6 85 85 VRB 6 9 29.96 1015 1 2 0.10 2.54
2:05 pm 14:05 Cloudy with Strong Thunderstorms 73 22.8 69 20.6 87 87 WSW 6 9 29.97 1015 1 1 0.14 3.56
2:07 pm 14:07 Cloudy with Nearby Thunderstorms 72 22.2 69 20.6 91 91 SSW 5 7 29.97 1015 1 1 0.16 4.06
2:15 pm 14:15 Cloudy with Nearby Thunderstorms 71 21.7 70 21.1 96 96 SSW 6 9 29.97 1015 2 3 0.17 4.32
2:22 pm 14:22 Cloudy with Nearby Thunderstorms 71 21.7 70 21.1 96 96 Calm 29.97 1015 7 11 0.17 4.32
2:43 pm 14:43 Mostly Cloudy 71 21.7 70 21.1 96 96 VRB 3 6 29.96 1014 10 16 0.18 4.57
2:53 pm 14:53 Partly Cloudy 72 22.2 70 21.1 94 94 Calm 29.94 1014 10 16 0.18 4.57
3:53 pm 15:53 Cloudy with Light Rain 77 25 72 22.2 85 85 Calm 29.93 1014 6 10 0.00 0.03
4:53 pm 16:53 Cloudy 76 24.4 73 22.8 91 91 Calm 29.93 1014 10 16 0.00 0.03
5:53 pm 17:53 Mostly Sunny 79 26.1 72 22.2 79 79 SSW 3 6 29.92 1013 10 16 0.00 0.00
6:53 pm 18:53 Sunny 82 27.8 73 22.8 74 74 Calm 29.91 1013 10 16 0.00 0.00
7:53 pm 19:53 Sunny 80 26.7 74 23.3 82 82 Calm 29.92 1013 10 16 0.00 0.00
8:53 pm 20:53 Partly Cloudy 78 25.6 66 18.9 67 67 NNW 6 9 29.95 1014 10 16 0.00 0.00
9:53 pm 21:53 Clear 77 25 66 18.9 69 69 NNW 5 7 29.98 1015 10 16 0.00 0.00
11:53 pm 23:53 Mostly Clear 74 23.3 65 18.3 74 74 VRB 5 7 30.00 1016 10 16 0.00 0.00

Powered by AerisWeather